Location: Carr Mill
(33.2054°N, 85.9439°W)
Time: 20:28:33
(UTC+00:00)

STARLINK-2753 - Pass Details

Date: 24 June 2021
Orbit: 345 x 354 km, 53.0° (Epoch: 03 August)

Event Time Altitude Azimuth Distance (km) Brightness Sun altitude
Exits shadow 07:51:09 13° 70° (ENE) 1,145 5.8 -26.0°
Drops below altitude 10° 07:51:38 10° 65° (ENE) 1,324 6.3 -26.0°
Enters shadow 08:46:24 -71° 225° (SW) 12,398 10.5 -19.0°
